Time,TemperatureF,DewpointF,PressureIn,WindDirection,WindDirectionDegrees,WindSpeedMPH,WindSpeedGustMPH,Humidity,HourlyPrecipIn,Conditions,Clouds,dailyrainin,SoftwareType,DateUTC
2013-01-12 00:00:00,3.9,0.1,27.86,North,4,8.0,16.0,84,0.00,,,0.00,Wunderground v.1.15,2013-01-12 06:00:00,
2013-01-12 00:06:00,3.8,0.0,27.87,NNE,15,8.0,16.0,84,0.00,,,0.00,Wunderground v.1.15,2013-01-12 06:06:00,
2013-01-12 00:12:00,3.7,-0.1,27.87,NW,312,8.0,16.0,84,0.00,,,0.00,Wunderground v.1.15,2013-01-12 06:12:00,
2013-01-12 00:18:00,3.8,0.0,27.87,NW,323,8.0,16.0,84,0.00,,,0.00,Wunderground v.1.15,2013-01-12 06:18:00,
2013-01-12 00:24:00,3.8,0.0,27.87,WNW,287,7.0,16.0,84,0.00,,,0.00,Wunderground v.1.15,2013-01-12 06:24:00,
2013-01-12 00:30:00,3.9,0.4,27.87,North,11,6.0,6.0,85,0.00,,,0.00,Wunderground v.1.15,2013-01-12 06:30:00,
2013-01-12 00:36:00,4.0,0.2,27.87,NW,314,7.0,16.0,84,0.00,,,0.00,Wunderground v.1.15,2013-01-12 06:36:00,
2013-01-12 00:42:00,4.0,0.2,27.88,West,274,8.0,16.0,84,0.00,,,0.00,Wunderground v.1.15,2013-01-12 06:42:00,
2013-01-12 00:48:00,4.0,0.2,27.88,NNW,327,7.0,16.0,84,0.00,,,0.00,Wunderground v.1.15,2013-01-12 06:48:00,
2013-01-12 00:54:00,3.8,-0.2,27.88,NW,320,8.0,16.0,83,0.00,,,0.00,Wunderground v.1.15,2013-01-12 06:54:00,
2013-01-12 01:00:00,3.7,-0.3,27.88,North,9,8.0,8.0,83,0.00,,,0.00,Wunderground v.1.15,2013-01-12 07:00:00,
2013-01-12 01:06:00,3.7,-0.1,27.88,NNW,327,8.0,16.0,84,0.00,,,0.00,Wunderground v.1.15,2013-01-12 07:06:00,
2013-01-12 01:12:00,3.6,-0.2,27.88,North,350,8.0,16.0,84,0.00,,,0.00,Wunderground v.1.15,2013-01-12 07:12:00,
2013-01-12 01:18:00,3.6,-0.2,27.89,North,350,8.0,16.0,84,0.00,,,0.00,Wunderground v.1.15,2013-01-12 07:18:00,
2013-01-12 01:24:00,3.7,-0.1,27.89,NNE,27,8.0,16.0,84,0.00,,,0.00,Wunderground v.1.15,2013-01-12 07:24:00,
2013-01-12 01:30:00,3.6,-0.4,27.89,NNW,330,9.0,9.0,83,0.00,,,0.00,Wunderground v.1.15,2013-01-12 07:30:00,
2013-01-12 01:36:00,3.6,-0.4,27.90,NW,319,10.0,20.0,83,0.00,,,0.00,Wunderground v.1.15,2013-01-12 07:36:00,
2013-01-12 01:42:00,3.6,-0.4,27.90,NW,316,10.0,16.0,83,0.00,,,0.00,Wunderground v.1.15,2013-01-12 07:42:00,
2013-01-12 01:48:00,3.5,-0.5,27.90,NNW,337,9.0,16.0,83,0.00,,,0.00,Wunderground v.1.15,2013-01-12 07:48:00,
2013-01-12 01:54:00,3.6,-0.4,27.90,SW,221,9.0,16.0,83,0.00,,,0.00,Wunderground v.1.15,2013-01-12 07:54:00,
2013-01-12 02:00:00,3.7,-0.3,27.90,North,352,7.0,16.0,83,0.00,,,0.00,Wunderground v.1.15,2013-01-12 08:00:00,
2013-01-12 02:06:00,3.9,-0.1,27.91,NW,320,6.0,16.0,83,0.00,,,0.00,Wunderground v.1.15,2013-01-12 08:06:00,
2013-01-12 02:12:00,4.1,0.3,27.91,NNW,340,8.0,16.0,84,0.00,,,0.00,Wunderground v.1.15,2013-01-12 08:12:00,
2013-01-12 02:18:00,4.2,0.4,27.92,WNW,295,7.0,16.0,84,0.00,,,0.00,Wunderground v.1.15,2013-01-12 08:18:00,
2013-01-12 02:24:00,4.2,0.4,27.92,West,263,8.0,16.0,84,0.00,,,0.00,Wunderground v.1.15,2013-01-12 08:24:00,
2013-01-12 02:30:00,4.2,0.4,27.92,NW,305,9.0,16.0,84,0.00,,,0.00,Wunderground v.1.15,2013-01-12 08:30:00,
2013-01-12 02:36:00,4.1,0.1,27.93,NW,321,9.0,16.0,83,0.00,,,0.00,Wunderground v.1.15,2013-01-12 08:36:00,
2013-01-12 02:42:00,4.0,0.0,27.93,NNE,30,10.0,19.0,83,0.00,,,0.00,Wunderground v.1.15,2013-01-12 08:42:00,
2013-01-12 02:48:00,3.9,-0.4,27.94,NNW,331,10.0,19.0,82,0.00,,,0.00,Wunderground v.1.15,2013-01-12 08:48:00,
2013-01-12 02:54:00,3.9,-0.1,27.94,NNW,342,10.0,17.0,83,0.00,,,0.00,Wunderground v.1.15,2013-01-12 08:54:00,
2013-01-12 03:00:00,3.9,-0.4,27.94,NNW,340,10.0,23.0,82,0.00,,,0.00,Wunderground v.1.15,2013-01-12 09:00:00,
2013-01-12 03:06:00,3.7,-0.6,27.95,NNW,328,10.0,23.0,82,0.00,,,0.00,Wunderground v.1.15,2013-01-12 09:06:00,
2013-01-12 03:12:00,3.7,-0.6,27.95,NW,315,10.0,23.0,82,0.00,,,0.00,Wunderground v.1.15,2013-01-12 09:12:00,
2013-01-12 03:18:00,3.7,-0.6,27.96,NNW,327,8.0,23.0,82,0.00,,,0.00,Wunderground v.1.15,2013-01-12 09:18:00,
2013-01-12 03:24:00,3.7,-0.6,27.96,WNW,302,9.0,23.0,82,0.00,,,0.00,Wunderground v.1.15,2013-01-12 09:24:00,
2013-01-12 03:30:00,3.8,-0.7,27.97,NNW,338,9.0,23.0,81,0.00,,,0.00,Wunderground v.1.15,2013-01-12 09:30:00,
2013-01-12 03:36:00,3.8,-0.7,27.97,NNW,327,10.0,23.0,81,0.00,,,0.00,Wunderground v.1.15,2013-01-12 09:36:00,
2013-01-12 03:42:00,3.8,-0.5,27.98,WNW,300,7.0,23.0,82,0.00,,,0.00,Wunderground v.1.15,2013-01-12 09:42:00,
2013-01-12 03:48:00,3.8,-0.7,27.98,NW,316,7.0,23.0,81,0.00,,,0.00,Wunderground v.1.15,2013-01-12 09:48:00,
2013-01-12 03:54:00,3.8,-0.7,27.98,NNE,16,9.0,23.0,81,0.00,,,0.00,Wunderground v.1.15,2013-01-12 09:54:00,
2013-01-12 04:00:00,3.6,-1.2,27.99,NW,304,11.0,11.0,80,0.00,,,0.00,Wunderground v.1.15,2013-01-12 10:00:00,
2013-01-12 04:06:00,3.5,-1.0,27.99,NNW,331,10.0,23.0,81,0.00,,,0.00,Wunderground v.1.15,2013-01-12 10:06:00,
2013-01-12 04:12:00,3.4,-0.9,27.99,NW,325,8.0,10.0,82,0.00,,,0.00,Wunderground v.1.15,2013-01-12 10:12:00,
2013-01-12 04:18:00,3.3,-1.0,28.00,NW,309,9.0,23.0,82,0.00,,,0.00,Wunderground v.1.15,2013-01-12 10:18:00,
2013-01-12 04:24:00,3.3,-0.7,28.00,North,352,9.0,23.0,83,0.00,,,0.00,Wunderground v.1.15,2013-01-12 10:24:00,
2013-01-12 04:30:00,3.3,-0.7,28.00,WNW,294,8.0,8.0,83,0.00,,,0.00,Wunderground v.1.15,2013-01-12 10:30:00,
2013-01-12 04:36:00,3.3,-0.4,28.00,NNE,15,8.0,23.0,84,0.00,,,0.00,Wunderground v.1.15,2013-01-12 10:36:00,
2013-01-12 04:42:00,3.4,-0.3,28.00,NW,313,9.0,23.0,84,0.00,,,0.00,Wunderground v.1.15,2013-01-12 10:42:00,
2013-01-12 04:48:00,3.3,-0.4,28.00,NW,317,9.0,23.0,84,0.00,,,0.00,Wunderground v.1.15,2013-01-12 10:48:00,
2013-01-12 04:54:00,3.3,-0.4,28.01,NNW,332,9.0,23.0,84,0.00,,,0.00,Wunderground v.1.15,2013-01-12 10:54:00,
2013-01-12 05:00:00,3.3,-0.4,28.01,NNW,343,9.0,23.0,84,0.00,,,0.00,Wunderground v.1.15,2013-01-12 11:00:00,
2013-01-12 05:06:00,3.2,-0.5,28.01,NW,309,10.0,23.0,84,0.00,,,0.00,Wunderground v.1.15,2013-01-12 11:06:00,
2013-01-12 05:12:00,3.3,-0.2,28.01,NNW,339,9.0,23.0,85,0.00,,,0.00,Wunderground v.1.15,2013-01-12 11:12:00,
2013-01-12 05:18:00,3.3,-0.2,28.01,NW,325,8.0,23.0,85,0.00,,,0.00,Wunderground v.1.15,2013-01-12 11:18:00,
2013-01-12 05:24:00,3.4,-0.1,28.01,NE,40,8.0,23.0,85,0.00,,,0.00,Wunderground v.1.15,2013-01-12 11:24:00,
2013-01-12 05:30:00,3.5,0.0,28.01,NW,311,9.0,9.0,85,0.00,,,0.00,Wunderground v.1.15,2013-01-12 11:30:00,
2013-01-12 05:36:00,3.5,0.0,28.01,NNW,343,9.0,23.0,85,0.00,,,0.00,Wunderground v.1.15,2013-01-12 11:36:00,
2013-01-12 05:42:00,3.5,0.0,28.01,NNW,343,9.0,14.0,85,0.00,,,0.00,Wunderground v.1.15,2013-01-12 11:42:00,
2013-01-12 05:48:00,3.5,0.0,28.02,North,8,10.0,23.0,85,0.00,,,0.00,Wunderground v.1.15,2013-01-12 11:48:00,
2013-01-12 05:54:00,3.4,-0.1,28.02,NNE,13,10.0,23.0,85,0.00,,,0.00,Wunderground v.1.15,2013-01-12 11:54:00,
2013-01-12 06:00:00,3.4,-0.1,28.02,WNW,300,10.0,23.0,85,0.00,,,0.00,Wunderground v.1.15,2013-01-12 12:00:00,
2013-01-12 06:06:00,3.3,-0.2,28.03,NW,311,9.0,23.0,85,0.00,,,0.00,Wunderground v.1.15,2013-01-12 12:06:00,
2013-01-12 06:12:00,3.3,-0.2,28.03,NNW,333,10.0,23.0,85,0.00,,,0.00,Wunderground v.1.15,2013-01-12 12:12:00,
2013-01-12 06:18:00,3.3,-0.2,28.04,NW,312,10.0,23.0,85,0.00,,,0.00,Wunderground v.1.15,2013-01-12 12:18:00,
2013-01-12 06:24:00,3.2,-0.3,28.04,NNW,345,11.0,23.0,85,0.00,,,0.00,Wunderground v.1.15,2013-01-12 12:24:00,
2013-01-12 06:30:00,3.0,-0.5,28.03,NNW,332,11.0,23.0,85,0.00,,,0.00,Wunderground v.1.15,2013-01-12 12:30:00,
2013-01-12 06:36:00,2.9,-0.8,28.04,NNW,335,13.0,23.0,84,0.00,,,0.00,Wunderground v.1.15,2013-01-12 12:36:00,
2013-01-12 06:42:00,2.8,-0.9,28.04,NNW,332,13.0,13.0,84,0.00,,,0.00,Wunderground v.1.15,2013-01-12 12:42:00,
2013-01-12 06:48:00,2.7,-1.0,28.05,NW,314,12.0,23.0,84,0.00,,,0.00,Wunderground v.1.15,2013-01-12 12:48:00,
2013-01-12 06:54:00,2.7,-1.0,28.05,WNW,300,11.0,23.0,84,0.00,,,0.00,Wunderground v.1.15,2013-01-12 12:54:00,
2013-01-12 07:00:00,2.6,-1.1,28.05,NNW,329,11.0,23.0,84,0.00,,,0.00,Wunderground v.1.15,2013-01-12 13:00:00,
2013-01-12 07:06:00,2.7,-1.3,28.06,NNW,335,12.0,23.0,83,0.00,,,0.00,Wunderground v.1.15,2013-01-12 13:06:00,
2013-01-12 07:12:00,2.8,-1.2,28.06,NNW,335,11.0,23.0,83,0.00,,,0.00,Wunderground v.1.15,2013-01-12 13:12:00,
2013-01-12 07:18:00,2.6,-1.6,28.06,NW,319,11.0,23.0,82,0.00,,,0.00,Wunderground v.1.15,2013-01-12 13:18:00,
2013-01-12 07:24:00,2.4,-1.8,28.06,NNW,335,13.0,16.0,82,0.00,,,0.00,Wunderground v.1.15,2013-01-12 13:24:00,
2013-01-12 07:30:00,2.2,-2.0,28.07,North,4,12.0,23.0,82,0.00,,,0.00,Wunderground v.1.15,2013-01-12 13:30:00,
2013-01-12 07:36:00,2.1,-2.1,28.07,NNW,343,12.0,23.0,82,0.00,,,0.00,Wunderground v.1.15,2013-01-12 13:36:00,
2013-01-12 07:42:00,2.0,-2.5,28.07,NW,326,12.0,23.0,81,0.00,,,0.00,Wunderground v.1.15,2013-01-12 13:42:00,
2013-01-12 07:48:00,1.8,-2.7,28.08,NNW,344,11.0,23.0,81,0.00,,,0.00,Wunderground v.1.15,2013-01-12 13:48:00,
2013-01-12 07:54:00,1.5,-3.0,28.08,NNW,340,12.0,23.0,81,0.00,,,0.00,Wunderground v.1.15,2013-01-12 13:54:00,
2013-01-12 08:00:00,1.4,-3.1,28.08,NE,50,11.0,23.0,81,0.00,,,0.00,Wunderground v.1.15,2013-01-12 14:00:00,
2013-01-12 08:06:00,1.2,-3.5,28.09,NW,310,12.0,23.0,80,0.00,,,0.00,Wunderground v.1.15,2013-01-12 14:06:00,
2013-01-12 08:12:00,1.1,-3.6,28.09,North,356,12.0,19.0,80,0.00,,,0.00,Wunderground v.1.15,2013-01-12 14:12:00,
2013-01-12 08:18:00,1.0,-4.0,28.09,NNW,328,12.0,23.0,79,0.00,,,0.00,Wunderground v.1.15,2013-01-12 14:18:00,
2013-01-12 08:24:00,1.0,-4.0,28.09,NW,326,11.0,23.0,79,0.00,,,0.00,Wunderground v.1.15,2013-01-12 14:24:00,
2013-01-12 08:30:00,0.8,-4.2,28.09,WNW,287,10.0,23.0,79,0.00,,,0.00,Wunderground v.1.15,2013-01-12 14:30:00,
2013-01-12 08:36:00,0.7,-4.6,28.09,NW,307,10.0,23.0,78,0.00,,,0.00,Wunderground v.1.15,2013-01-12 14:36:00,
2013-01-12 08:42:00,0.7,-4.6,28.10,NW,309,11.0,12.0,78,0.00,,,0.00,Wunderground v.1.15,2013-01-12 14:42:00,
2013-01-12 08:48:00,0.7,-4.6,28.10,NW,316,10.0,23.0,78,0.00,,,0.00,Wunderground v.1.15,2013-01-12 14:48:00,
2013-01-12 08:54:00,0.6,-4.6,28.11,NW,316,11.0,23.0,78,0.00,,,0.00,Wunderground v.1.15,2013-01-12 14:54:00,
2013-01-12 09:00:00,0.4,-5.1,28.11,NW,326,10.0,23.0,77,0.00,,,0.00,Wunderground v.1.15,2013-01-12 15:00:00,
2013-01-12 09:06:00,0.5,-5.0,28.11,NNW,332,10.0,23.0,77,0.00,,,0.00,Wunderground v.1.15,2013-01-12 15:06:00,
2013-01-12 09:12:00,0.6,-5.2,28.12,NW,319,11.0,23.0,76,0.00,,,0.00,Wunderground v.1.15,2013-01-12 15:12:00,
2013-01-12 09:18:00,0.7,-5.1,28.13,WNW,288,10.0,23.0,76,0.00,,,0.00,Wunderground v.1.15,2013-01-12 15:18:00,
2013-01-12 09:24:00,0.9,-4.6,28.13,NNW,335,9.0,23.0,77,0.00,,,0.00,Wunderground v.1.15,2013-01-12 15:24:00,
2013-01-12 09:30:00,1.1,-4.7,28.13,North,354,9.0,23.0,76,0.00,,,0.00,Wunderground v.1.15,2013-01-12 15:30:00,
2013-01-12 09:36:00,1.1,-5.3,28.13,North,352,10.0,23.0,74,0.00,,,0.00,Wunderground v.1.15,2013-01-12 15:36:00,
2013-01-12 09:42:00,1.2,-4.9,28.13,NW,315,10.0,23.0,75,0.00,,,0.00,Wunderground v.1.15,2013-01-12 15:42:00,
2013-01-12 09:48:00,1.2,-4.9,28.14,NW,315,10.0,23.0,75,0.00,,,0.00,Wunderground v.1.15,2013-01-12 15:48:00,
2013-01-12 09:54:00,1.2,-4.9,28.14,WNW,297,8.0,23.0,75,0.00,,,0.00,Wunderground v.1.15,2013-01-12 15:54:00,
2013-01-12 10:00:00,1.3,-5.1,28.14,WNW,288,8.0,8.0,74,0.00,,,0.00,Wunderground v.1.15,2013-01-12 16:00:00,
2013-01-12 10:06:00,1.3,-5.3,28.15,NW,316,10.0,23.0,73,0.00,,,0.00,Wunderground v.1.15,2013-01-12 16:06:00,
2013-01-12 10:12:00,1.4,-5.3,28.15,NW,316,8.0,23.0,73,0.00,,,0.00,Wunderground v.1.15,2013-01-12 16:12:00,
2013-01-12 10:18:00,1.4,-5.3,28.16,NNW,344,7.0,23.0,73,0.00,,,0.00,Wunderground v.1.15,2013-01-12 16:18:00,
2013-01-12 10:24:00,1.4,-5.3,28.16,WNW,288,7.0,23.0,73,0.00,,,0.00,Wunderground v.1.15,2013-01-12 16:24:00,
2013-01-12 10:30:00,1.6,-5.1,28.16,NW,316,6.0,23.0,73,0.00,,,0.00,Wunderground v.1.15,2013-01-12 16:30:00,
2013-01-12 10:36:00,1.6,-5.1,28.17,NW,307,7.0,23.0,73,0.00,,,0.00,Wunderground v.1.15,2013-01-12 16:36:00,
2013-01-12 10:42:00,1.7,-5.0,28.17,NW,316,7.0,23.0,73,0.00,,,0.00,Wunderground v.1.15,2013-01-12 16:42:00,
2013-01-12 10:48:00,1.6,-5.3,28.17,NW,316,7.0,23.0,72,0.00,,,0.00,Wunderground v.1.15,2013-01-12 16:48:00,
2013-01-12 10:54:00,1.6,-5.1,28.17,North,1,9.0,23.0,73,0.00,,,0.00,Wunderground v.1.15,2013-01-12 16:54:00,
2013-01-12 11:00:00,1.6,-5.1,28.17,NW,304,8.0,8.0,73,0.00,,,0.00,Wunderground v.1.15,2013-01-12 17:00:00,
2013-01-12 11:06:00,1.5,-5.2,28.18,NW,323,8.0,23.0,73,0.00,,,0.00,Wunderground v.1.15,2013-01-12 17:06:00,
2013-01-12 11:12:00,1.5,-4.9,28.18,NNW,328,8.0,23.0,74,0.00,,,0.00,Wunderground v.1.15,2013-01-12 17:12:00,
2013-01-12 11:18:00,1.5,-4.9,28.18,WNW,300,7.0,23.0,74,0.00,,,0.00,Wunderground v.1.15,2013-01-12 17:18:00,
2013-01-12 11:24:00,1.5,-4.9,28.18,NW,312,7.0,23.0,74,0.00,,,0.00,Wunderground v.1.15,2013-01-12 17:24:00,
2013-01-12 11:30:00,1.4,-5.0,28.19,NW,311,7.0,23.0,74,0.00,,,0.00,Wunderground v.1.15,2013-01-12 17:30:00,
2013-01-12 11:36:00,1.5,-4.9,28.19,NW,305,8.0,23.0,74,0.00,,,0.00,Wunderground v.1.15,2013-01-12 17:36:00,
2013-01-12 11:42:00,1.7,-5.0,28.19,West,277,9.0,23.0,73,0.00,,,0.00,Wunderground v.1.15,2013-01-12 17:42:00,
2013-01-12 11:48:00,1.8,-4.9,28.19,NW,316,9.0,23.0,73,0.00,,,0.00,Wunderground v.1.15,2013-01-12 17:48:00,
2013-01-12 11:54:00,2.1,-4.3,28.20,NNW,330,9.0,23.0,74,0.00,,,0.00,Wunderground v.1.15,2013-01-12 17:54:00,
2013-01-12 12:00:00,2.2,-4.5,28.19,WNW,298,9.0,23.0,73,0.00,,,0.00,Wunderground v.1.15,2013-01-12 18:00:00,
2013-01-12 12:06:00,1.8,-5.2,28.19,NNW,334,10.0,23.0,72,0.00,,,0.00,Wunderground v.1.15,2013-01-12 18:06:00,
2013-01-12 12:12:00,1.8,-4.9,28.19,WNW,300,10.0,23.0,73,0.00,,,0.00,Wunderground v.1.15,2013-01-12 18:12:00,
2013-01-12 12:18:00,1.9,-4.8,28.20,NW,311,9.0,23.0,73,0.00,,,0.00,Wunderground v.1.15,2013-01-12 18:18:00,
2013-01-12 12:24:00,1.9,-4.8,28.20,NNW,328,9.0,23.0,73,0.00,,,0.00,Wunderground v.1.15,2013-01-12 18:24:00,
2013-01-12 12:30:00,1.9,-4.8,28.20,WNW,300,9.0,9.0,73,0.00,,,0.00,Wunderground v.1.15,2013-01-12 18:30:00,
2013-01-12 12:36:00,2.1,-4.6,28.20,NW,323,9.0,23.0,73,0.00,,,0.00,Wunderground v.1.15,2013-01-12 18:36:00,
2013-01-12 12:42:00,2.2,-4.5,28.20,NW,307,9.0,23.0,73,0.00,,,0.00,Wunderground v.1.15,2013-01-12 18:42:00,
2013-01-12 12:48:00,2.4,-4.3,28.20,NW,311,9.0,23.0,73,0.00,,,0.00,Wunderground v.1.15,2013-01-12 18:48:00,
2013-01-12 12:54:00,2.3,-4.4,28.20,WNW,297,9.0,23.0,73,0.00,,,0.00,Wunderground v.1.15,2013-01-12 18:54:00,
2013-01-12 13:00:00,2.3,-4.4,28.20,NNW,333,9.0,23.0,73,0.00,,,0.00,Wunderground v.1.15,2013-01-12 19:00:00,
2013-01-12 13:06:00,2.5,-3.9,28.20,NW,319,9.0,23.0,74,0.00,,,0.00,Wunderground v.1.15,2013-01-12 19:06:00,
2013-01-12 13:12:00,2.4,-4.3,28.21,NNW,329,8.0,23.0,73,0.00,,,0.00,Wunderground v.1.15,2013-01-12 19:12:00,
2013-01-12 13:18:00,2.3,-4.4,28.21,NNW,335,9.0,23.0,73,0.00,,,0.00,Wunderground v.1.15,2013-01-12 19:18:00,
2013-01-12 13:24:00,2.3,-4.4,28.21,NW,307,8.0,23.0,73,0.00,,,0.00,Wunderground v.1.15,2013-01-12 19:24:00,
2013-01-12 13:30:00,2.4,-4.3,28.22,WNW,296,8.0,23.0,73,0.00,,,0.00,Wunderground v.1.15,2013-01-12 19:30:00,
2013-01-12 13:36:00,2.4,-4.3,28.22,WNW,288,9.0,23.0,73,0.00,,,0.00,Wunderground v.1.15,2013-01-12 19:36:00,
2013-01-12 13:42:00,2.4,-4.3,28.22,NW,316,9.0,23.0,73,0.00,,,0.00,Wunderground v.1.15,2013-01-12 19:42:00,
2013-01-12 13:48:00,2.5,-4.2,28.22,WNW,300,9.0,23.0,73,0.00,,,0.00,Wunderground v.1.15,2013-01-12 19:48:00,
2013-01-12 13:54:00,2.5,-4.2,28.22,NNE,13,8.0,23.0,73,0.00,,,0.00,Wunderground v.1.15,2013-01-12 19:54:00,
2013-01-12 14:00:00,2.4,-4.6,28.22,NW,311,7.0,23.0,72,0.00,,,0.00,Wunderground v.1.15,2013-01-12 20:00:00,
2013-01-12 14:06:00,2.4,-4.3,28.23,WNW,302,8.0,23.0,73,0.00,,,0.00,Wunderground v.1.15,2013-01-12 20:06:00,
2013-01-12 14:12:00,2.4,-4.6,28.23,NW,310,8.0,8.0,72,0.00,,,0.00,Wunderground v.1.15,2013-01-12 20:12:00,
2013-01-12 14:18:00,2.5,-4.2,28.23,NNW,332,7.0,23.0,73,0.00,,,0.00,Wunderground v.1.15,2013-01-12 20:18:00,
2013-01-12 14:24:00,2.6,-4.1,28.23,NW,313,6.0,23.0,73,0.00,,,0.00,Wunderground v.1.15,2013-01-12 20:24:00,
2013-01-12 14:30:00,2.8,-3.9,28.23,NW,317,6.0,6.0,73,0.00,,,0.00,Wunderground v.1.15,2013-01-12 20:30:00,
2013-01-12 14:36:00,3.0,-3.7,28.24,NW,316,5.0,23.0,73,0.00,,,0.00,Wunderground v.1.15,2013-01-12 20:36:00,
2013-01-12 14:42:00,2.9,-3.8,28.24,WNW,300,6.0,23.0,73,0.00,,,0.00,Wunderground v.1.15,2013-01-12 20:42:00,
2013-01-12 14:48:00,3.0,-3.7,28.24,NW,318,8.0,23.0,73,0.00,,,0.00,Wunderground v.1.15,2013-01-12 20:48:00,
2013-01-12 14:54:00,3.3,-3.4,28.24,NW,307,7.0,23.0,73,0.00,,,0.00,Wunderground v.1.15,2013-01-12 20:54:00,
2013-01-12 15:00:00,3.4,-3.3,28.24,NW,307,7.0,23.0,73,0.00,,,0.00,Wunderground v.1.15,2013-01-12 21:00:00,
2013-01-12 15:06:00,3.3,-3.7,28.24,NW,312,6.0,23.0,72,0.00,,,0.00,Wunderground v.1.15,2013-01-12 21:06:00,
2013-01-12 15:12:00,3.3,-3.4,28.25,WNW,302,5.0,23.0,73,0.00,,,0.00,Wunderground v.1.15,2013-01-12 21:12:00,
2013-01-12 15:18:00,3.1,-3.6,28.24,NW,312,5.0,23.0,73,0.00,,,0.00,Wunderground v.1.15,2013-01-12 21:18:00,
2013-01-12 15:24:00,3.1,-3.6,28.24,WNW,294,5.0,23.0,73,0.00,,,0.00,Wunderground v.1.15,2013-01-12 21:24:00,
2013-01-12 15:30:00,2.9,-3.8,28.24,NW,307,6.0,23.0,73,0.00,,,0.00,Wunderground v.1.15,2013-01-12 21:30:00,
2013-01-12 15:36:00,2.8,-3.6,28.24,NW,305,6.0,23.0,74,0.00,,,0.00,Wunderground v.1.15,2013-01-12 21:36:00,
2013-01-12 15:42:00,2.7,-4.0,28.24,NW,315,5.0,23.0,73,0.00,,,0.00,Wunderground v.1.15,2013-01-12 21:42:00,
2013-01-12 15:48:00,2.6,-4.1,28.25,NNW,332,6.0,23.0,73,0.00,,,0.00,Wunderground v.1.15,2013-01-12 21:48:00,
2013-01-12 15:54:00,2.4,-4.3,28.24,NW,315,6.0,23.0,73,0.00,,,0.00,Wunderground v.1.15,2013-01-12 21:54:00,
2013-01-12 16:00:00,2.4,-4.3,28.25,NNW,328,6.0,6.0,73,0.00,,,0.00,Wunderground v.1.15,2013-01-12 22:00:00,
2013-01-12 16:06:00,2.4,-4.0,28.25,NW,316,5.0,23.0,74,0.00,,,0.00,Wunderground v.1.15,2013-01-12 22:06:00,
2013-01-12 16:12:00,2.3,-4.1,28.25,NNW,334,6.0,23.0,74,0.00,,,0.00,Wunderground v.1.15,2013-01-12 22:12:00,
2013-01-12 16:18:00,2.3,-4.1,28.25,WNW,290,6.0,23.0,74,0.00,,,0.00,Wunderground v.1.15,2013-01-12 22:18:00,
2013-01-12 16:24:00,2.4,-3.7,28.25,WNW,288,6.0,23.0,75,0.00,,,0.00,Wunderground v.1.15,2013-01-12 22:24:00,
2013-01-12 16:30:00,2.5,-3.6,28.25,NW,312,5.0,5.0,75,0.00,,,0.00,Wunderground v.1.15,2013-01-12 22:30:00,
2013-01-12 16:36:00,2.6,-3.5,28.25,NNW,340,4.0,23.0,75,0.00,,,0.00,Wunderground v.1.15,2013-01-12 22:36:00,
2013-01-12 16:42:00,2.6,-3.5,28.25,NW,311,5.0,23.0,75,0.00,,,0.00,Wunderground v.1.15,2013-01-12 22:42:00,
2013-01-12 16:48:00,2.7,-3.4,28.25,NW,325,6.0,23.0,75,0.00,,,0.00,Wunderground v.1.15,2013-01-12 22:48:00,
2013-01-12 16:54:00,2.8,-3.1,28.25,WNW,300,6.0,23.0,76,0.00,,,0.00,Wunderground v.1.15,2013-01-12 22:54:00,
2013-01-12 17:00:00,2.8,-3.1,28.25,NW,317,6.0,23.0,76,0.00,,,0.00,Wunderground v.1.15,2013-01-12 23:00:00,
2013-01-12 17:06:00,2.7,-3.1,28.25,NW,307,6.0,23.0,76,0.00,,,0.00,Wunderground v.1.15,2013-01-12 23:06:00,
2013-01-12 17:12:00,2.6,-3.2,28.25,WNW,303,4.0,23.0,76,0.00,,,0.00,Wunderground v.1.15,2013-01-12 23:12:00,
2013-01-12 17:18:00,2.6,-3.2,28.25,NW,307,5.0,23.0,76,0.00,,,0.00,Wunderground v.1.15,2013-01-12 23:18:00,
2013-01-12 17:24:00,2.5,-3.3,28.25,NW,311,5.0,23.0,76,0.00,,,0.00,Wunderground v.1.15,2013-01-12 23:24:00,
2013-01-12 17:30:00,2.4,-3.4,28.26,WNW,302,5.0,23.0,76,0.00,,,0.00,Wunderground v.1.15,2013-01-12 23:30:00,
2013-01-12 17:36:00,2.3,-3.5,28.26,NW,326,4.0,23.0,76,0.00,,,0.00,Wunderground v.1.15,2013-01-12 23:36:00,
2013-01-12 17:42:00,2.2,-3.6,28.26,NNW,348,4.0,23.0,76,0.00,,,0.00,Wunderground v.1.15,2013-01-12 23:42:00,
2013-01-12 17:48:00,2.1,-3.5,28.26,WNW,300,4.0,23.0,77,0.00,,,0.00,Wunderground v.1.15,2013-01-12 23:48:00,
2013-01-12 17:54:00,1.9,-3.7,28.26,NW,319,3.0,23.0,77,0.00,,,0.00,Wunderground v.1.15,2013-01-12 23:54:00,
2013-01-12 18:00:00,1.8,-3.7,28.26,WNW,302,3.0,23.0,77,0.00,,,0.00,Wunderground v.1.15,2013-01-13 00:00:00,
2013-01-12 18:06:00,1.5,-4.0,28.26,West,281,3.0,23.0,77,0.00,,,0.00,Wunderground v.1.15,2013-01-13 00:06:00,
2013-01-12 18:12:00,1.2,-4.3,28.26,NW,321,4.0,23.0,77,0.00,,,0.00,Wunderground v.1.15,2013-01-13 00:12:00,
2013-01-12 18:18:00,1.1,-4.7,28.26,WNW,300,5.0,23.0,76,0.00,,,0.00,Wunderground v.1.15,2013-01-13 00:18:00,
2013-01-12 18:26:00,0.9,-4.9,28.26,WNW,287,4.0,23.0,76,0.00,,,0.00,Wunderground v.1.15,2013-01-13 00:26:00,
2013-01-12 18:32:00,0.8,-5.0,28.26,WNW,300,4.0,23.0,76,0.00,,,0.00,Wunderground v.1.15,2013-01-13 00:32:00,
2013-01-12 18:38:00,0.7,-5.1,28.26,WNW,301,4.0,23.0,76,0.00,,,0.00,Wunderground v.1.15,2013-01-13 00:38:00,
2013-01-12 18:44:00,0.7,-5.1,28.27,WNW,295,4.0,23.0,76,0.00,,,0.00,Wunderground v.1.15,2013-01-13 00:44:00,
2013-01-12 18:50:00,0.7,-5.1,28.27,West,281,3.0,23.0,76,0.00,,,0.00,Wunderground v.1.15,2013-01-13 00:50:00,
2013-01-12 18:56:00,0.5,-5.3,28.27,WNW,297,4.0,23.0,76,0.00,,,0.00,Wunderground v.1.15,2013-01-13 00:56:00,
2013-01-12 19:02:00,0.5,-5.6,28.27,WNW,293,4.0,23.0,75,0.00,,,0.00,Wunderground v.1.15,2013-01-13 01:02:00,
2013-01-12 19:08:00,0.6,-5.2,28.26,WNW,302,3.0,23.0,76,0.00,,,0.00,Wunderground v.1.15,2013-01-13 01:08:00,
2013-01-12 19:14:00,0.6,-5.5,28.26,WNW,290,3.0,23.0,75,0.00,,,0.00,Wunderground v.1.15,2013-01-13 01:14:00,
2013-01-12 19:20:00,0.8,-5.3,28.26,NW,316,4.0,23.0,75,0.00,,,0.00,Wunderground v.1.15,2013-01-13 01:20:00,
2013-01-12 19:26:00,1.0,-5.1,28.26,WNW,284,4.0,23.0,75,0.00,,,0.00,Wunderground v.1.15,2013-01-13 01:26:00,
2013-01-12 19:32:00,1.2,-4.9,28.26,WNW,295,3.0,23.0,75,0.00,,,0.00,Wunderground v.1.15,2013-01-13 01:32:00,
2013-01-12 19:38:00,1.3,-5.1,28.26,West,270,3.0,23.0,74,0.00,,,0.00,Wunderground v.1.15,2013-01-13 01:38:00,
2013-01-12 19:44:00,1.4,-5.0,28.26,WNW,298,4.0,23.0,74,0.00,,,0.00,Wunderground v.1.15,2013-01-13 01:44:00,
2013-01-12 19:50:00,1.4,-5.0,28.26,WNW,292,4.0,4.0,74,0.00,,,0.00,Wunderground v.1.15,2013-01-13 01:50:00,
2013-01-12 19:56:00,1.3,-5.1,28.26,WNW,295,4.0,23.0,74,0.00,,,0.00,Wunderground v.1.15,2013-01-13 01:56:00,
2013-01-12 20:02:00,1.2,-4.9,28.26,NW,315,3.0,23.0,75,0.00,,,0.00,Wunderground v.1.15,2013-01-13 02:02:00,
2013-01-12 20:08:00,1.0,-5.1,28.26,NW,318,3.0,23.0,75,0.00,,,0.00,Wunderground v.1.15,2013-01-13 02:08:00,
2013-01-12 20:14:00,1.1,-5.3,28.25,NNW,332,4.0,23.0,74,0.00,,,0.00,Wunderground v.1.15,2013-01-13 02:14:00,
2013-01-12 20:20:00,1.2,-5.2,28.25,NW,309,5.0,5.0,74,0.00,,,0.00,Wunderground v.1.15,2013-01-13 02:20:00,
2013-01-12 20:26:00,1.1,-5.5,28.25,WNW,298,5.0,23.0,73,0.00,,,0.00,Wunderground v.1.15,2013-01-13 02:26:00,
2013-01-12 20:32:00,0.9,-5.7,28.25,WNW,292,4.0,23.0,73,0.00,,,0.00,Wunderground v.1.15,2013-01-13 02:32:00,
2013-01-12 20:38:00,0.7,-5.9,28.25,WNW,299,4.0,23.0,73,0.00,,,0.00,Wunderground v.1.15,2013-01-13 02:38:00,
2013-01-12 20:44:00,0.4,-6.2,28.25,NW,315,3.0,23.0,73,0.00,,,0.00,Wunderground v.1.15,2013-01-13 02:44:00,
2013-01-12 20:50:00,0.2,-6.4,28.26,WNW,297,2.0,23.0,73,0.00,,,0.00,Wunderground v.1.15,2013-01-13 02:50:00,
2013-01-12 20:56:00,0.0,-6.3,28.26,NW,315,2.0,23.0,74,0.00,,,0.00,Wunderground v.1.15,2013-01-13 02:56:00,
2013-01-12 21:02:00,-0.2,-6.5,28.26,NW,304,1.0,23.0,74,0.00,,,0.00,Wunderground v.1.15,2013-01-13 03:02:00,
2013-01-12 21:08:00,-0.3,-6.6,28.26,NW,304,1.0,23.0,74,0.00,,,0.00,Wunderground v.1.15,2013-01-13 03:08:00,
2013-01-12 21:14:00,-0.4,-6.7,28.26,WNW,287,0.0,23.0,74,0.00,,,0.00,Wunderground v.1.15,2013-01-13 03:14:00,
2013-01-12 21:20:00,-0.6,-6.6,28.26,WNW,287,0.0,23.0,75,0.00,,,0.00,Wunderground v.1.15,2013-01-13 03:20:00,
2013-01-12 21:26:00,-0.8,-7.1,28.26,NW,325,0.0,23.0,74,0.00,,,0.00,Wunderground v.1.15,2013-01-13 03:26:00,
2013-01-12 21:32:00,-1.0,-7.0,28.26,NW,325,0.0,23.0,75,0.00,,,0.00,Wunderground v.1.15,2013-01-13 03:32:00,
2013-01-12 21:38:00,-1.5,-7.5,28.26,NW,325,0.0,23.0,75,0.00,,,0.00,Wunderground v.1.15,2013-01-13 03:38:00,
2013-01-12 21:44:00,-1.9,-7.6,28.26,WNW,297,0.0,23.0,76,0.00,,,0.00,Wunderground v.1.15,2013-01-13 03:44:00,
2013-01-12 21:50:00,-2.2,-7.9,28.26,WNW,297,0.0,23.0,76,0.00,,,0.00,Wunderground v.1.15,2013-01-13 03:50:00,
2013-01-12 21:56:00,-2.4,-7.8,28.26,WNW,297,0.0,23.0,77,0.00,,,0.00,Wunderground v.1.15,2013-01-13 03:56:00,
2013-01-12 22:02:00,-2.6,-8.0,28.26,West,264,0.0,23.0,77,0.00,,,0.00,Wunderground v.1.15,2013-01-13 04:02:00,
2013-01-12 22:08:00,-2.4,-7.6,28.26,West,278,0.0,23.0,78,0.00,,,0.00,Wunderground v.1.15,2013-01-13 04:08:00,
2013-01-12 22:14:00,-2.3,-7.7,28.26,West,278,1.0,23.0,77,0.00,,,0.00,Wunderground v.1.15,2013-01-13 04:14:00,
2013-01-12 22:20:00,-2.2,-7.9,28.26,West,278,1.0,23.0,76,0.00,,,0.00,Wunderground v.1.15,2013-01-13 04:20:00,
2013-01-12 22:26:00,-2.2,-8.2,28.26,WNW,283,2.0,23.0,75,0.00,,,0.00,Wunderground v.1.15,2013-01-13 04:26:00,
2013-01-12 22:32:00,-2.2,-8.2,28.26,West,274,1.0,23.0,75,0.00,,,0.00,Wunderground v.1.15,2013-01-13 04:32:00,
2013-01-12 22:38:00,-2.3,-8.3,28.26,West,281,0.0,23.0,75,0.00,,,0.00,Wunderground v.1.15,2013-01-13 04:38:00,
2013-01-12 22:44:00,-2.2,-8.2,28.26,West,278,0.0,23.0,75,0.00,,,0.00,Wunderground v.1.15,2013-01-13 04:44:00,
2013-01-12 22:50:00,-2.0,-8.0,28.26,WNW,283,1.0,23.0,75,0.00,,,0.00,Wunderground v.1.15,2013-01-13 04:50:00,
2013-01-12 22:56:00,-1.9,-8.2,28.26,West,281,1.0,23.0,74,0.00,,,0.00,Wunderground v.1.15,2013-01-13 04:56:00,
2013-01-12 23:00:00,-1.8,-8.1,28.26,WNW,287,2.0,2.0,74,0.00,,,0.00,Wunderground v.1.15,2013-01-13 05:00:00,
2013-01-12 23:02:00,-1.8,-8.1,28.26,WNW,284,2.0,23.0,74,0.00,,,0.00,Wunderground v.1.15,2013-01-13 05:02:00,
2013-01-12 23:04:00,-1.7,-8.0,28.26,WNW,291,2.0,23.0,74,0.00,,,0.00,Wunderground v.1.15,2013-01-13 05:04:00,
2013-01-12 23:10:00,-1.5,-7.8,28.26,WNW,297,2.0,23.0,74,0.00,,,0.00,Wunderground v.1.15,2013-01-13 05:10:00,
2013-01-12 23:16:00,-1.2,-7.5,28.26,WNW,295,2.0,23.0,74,0.00,,,0.00,Wunderground v.1.15,2013-01-13 05:16:00,
2013-01-12 23:22:00,-0.9,-7.2,28.26,WNW,302,1.0,23.0,74,0.00,,,0.00,Wunderground v.1.15,2013-01-13 05:22:00,
2013-01-12 23:28:00,-0.7,-7.0,28.26,WNW,284,0.0,23.0,74,0.00,,,0.00,Wunderground v.1.15,2013-01-13 05:28:00,
2013-01-12 23:34:00,-0.8,-7.1,28.26,WNW,284,0.0,23.0,74,0.00,,,0.00,Wunderground v.1.15,2013-01-13 05:34:00,
2013-01-12 23:40:00,-1.1,-7.4,28.26,WNW,294,1.0,23.0,74,0.00,,,0.00,Wunderground v.1.15,2013-01-13 05:40:00,
2013-01-12 23:46:00,-1.1,-7.4,28.26,NW,318,1.0,23.0,74,0.00,,,0.00,Wunderground v.1.15,2013-01-13 05:46:00,
2013-01-12 23:52:00,-1.2,-7.5,28.26,NW,318,0.0,23.0,74,0.00,,,0.00,Wunderground v.1.15,2013-01-13 05:52:00,
2013-01-12 23:58:00,-1.3,-7.3,28.26,NW,321,0.0,23.0,75,0.00,,,0.00,Wunderground v.1.15,2013-01-13 05:58:00,